Content
SEND FEEDBACK

Daily
Averages
Monthly
Summary
United States of America

MYRTLE BEACH, SOUTH CAROLINA


Home > North America > United States > South Carolina
Elevation: 33 feet     Latitude: 33 41N     Longitude: 078 56W

WEATHER
 
SELECT A DAY
Number of Records: 257,391;   Date Range: 1/1/95 - 9/18/14
 
SHARE

PRINT THIS DATA

[ ← Previous Day ]
WEATHER ALMANAC - JULY 20, 2014
[ Next Day → ]
[ °C ]   °F
Weather ElementAverageHighLow
Temperature77.2 °F84.2 °F (10:45 am)71.6 °F (3:15 am)
Dewpoint71.1 °F75.2 °F (11:55 pm)68 °F (12:55 am)
Humidity81.7 %94 % (2:55 am)66 % (10:45 am)
Barometer30.07 in30.10 in (8:45 am)30.04 in (7:45 pm)
Wind Speed5.6 mph13.8 mph (10:55 pm)
Weather ElementAverage
Visibility9.8 mi
Wind DirectionESE (123.2 °)

Weather ElementTotal
Precipitation---
Cooling Degree Days12.9 (Base 65)
Growing Degree Days27.9 (Base 50)
Averaged from 38 records on July 20, 2014
WEATHER CONDITIONS BREAKOUT
WIND DIRECTION BREAKOUT
WEATHER BY HOUR - JULY 20, 2014
[ °C ]   °F
Local TimeTemperatureDewpointHumidityBarometerVisibilityWind DirectionWind SpeedGust SpeedPrecipitationEventsConditions
12:35 AM75.2 °F69.8 °F83 %30.07 in10.0 miCalm
12:55 AM75.2 °F68.0 °F78 %30.07 in10.0 miCalm
1:15 AM73.4 °F69.8 °F88 %30.07 in10.0 miWest (270°)4.6 mph
1:35 AM73.4 °F69.8 °F88 %30.07 in10.0 miCalm
1:55 AM73.4 °F69.8 °F88 %30.06 in10.0 miCalm
2:15 AM73.4 °F69.8 °F88 %30.06 in10.0 miCalm
2:35 AM73.4 °F69.8 °F88 %30.05 in10.0 miNorth (360°)3.5 mph
2:55 AM73.4 °F71.6 °F94 %30.05 in10.0 miNorth (360°)3.5 mph
3:15 AM71.6 °F68.0 °F88 %30.05 in10.0 miCalm
3:35 AM71.6 °F68.0 °F88 %30.05 in10.0 miCalm
3:55 AM73.4 °F69.8 °F88 %30.05 in10.0 miCalm
4:15 AM73.4 °F68.0 °F83 %30.05 in10.0 miCalm
4:35 AM71.6 °F68.0 °F88 %30.05 in10.0 miCalm
4:55 AM71.6 °F68.0 °F88 %30.06 in10.0 miCalm
5:15 AM73.4 °F71.6 °F94 %30.06 in10.0 miNorth (360°)3.5 mph
5:35 AM73.4 °F68.0 °F83 %30.06 in10.0 miCalm
5:55 AM73.4 °F68.0 °F83 %30.07 in10.0 miCalm
6:47 AM71.6 °F69.8 °F94 %30.07 in10.0 miNorth (350°)5.8 mphMostly Cloudy
7:45 AM75.2 °F69.8 °F83 %30.08 in10.0 miCalmScattered Clouds
8:45 AM78.8 °F73.4 °F83 %30.10 in10.0 miCalmScattered Clouds
9:47 AM80.6 °F71.6 °F74 %30.10 in10.0 miSSE (150°)5.8 mphMostly Cloudy
10:45 AM84.2 °F71.6 °F66 %30.10 in10.0 miSSE (150°)6.9 mphScattered Clouds
11:48 AM84.2 °F71.6 °F66 %30.10 in10.0 miSouth (170°)10.4 mphMostly Cloudy
12:50 PM82.4 °F71.6 °F70 %30.10 in10.0 miSouth (170°)10.4 mphMostly Cloudy
1:50 PM80.6 °F73.4 °F79 %30.10 in10.0 miSouth (190°)10.4 mphMostly Cloudy
2:40 PM80.6 °F73.4 °F79 %30.09 in3.0 miWest (260°)9.2 mphRainRain
2:53 PM78.8 °F73.4 °F83 %30.09 in10.0 miSE (140°)9.2 mphMostly Cloudy
3:45 PM80.6 °F71.6 °F74 %30.06 in10.0 miSouth (190°)11.5 mphScattered Clouds
4:45 PM82.4 °F71.6 °F70 %30.05 in10.0 miSouth (180°)11.5 mphScattered Clouds
5:50 PM82.4 °F73.4 °F74 %30.05 in10.0 miSouth (180°)11.5 mphScattered Clouds
6:50 PM82.4 °F73.4 °F74 %30.05 in10.0 miSSE (150°)11.5 mphMostly Cloudy
7:45 PM80.6 °F73.4 °F79 %30.04 in10.0 miSSE (150°)11.5 mphScattered Clouds
8:45 PM80.6 °F73.4 °F79 %30.05 in10.0 miSSE (160°)11.5 mphScattered Clouds
9:45 PM80.6 °F73.4 °F79 %30.06 in10.0 miSSE (160°)11.5 mphScattered Clouds
10:55 PM80.6 °F73.4 °F79 %30.08 in10.0 miSE (140°)13.8 mph
11:15 PM80.6 °F73.4 °F79 %30.08 in10.0 miSSE (150°)11.5 mph
11:35 PM80.6 °F73.4 °F79 %30.08 in10.0 miSSE (150°)13.8 mph
11:55 PM80.6 °F75.2 °F84 %30.07 in10.0 miSE (140°)10.4 mph
Hourly data recorded from KMYR, located miles away from Myrtle Beach, South Carolina







STORIES FROM OUR PARTNERS